Regional Weather Roundup
Issued by NWS

Home | Current Version | Previous Version | Graphics & Text | Print | Product List | Glossary Off
Versions: 1 2 3 4 5 6 7 8 9 10 11 12 13 14 15 16 17 18 19 20 21 22 23 24 25 26 27 28 29 30 31 32 33 34 35 36 37 38 39 40 41 42 43 44 45 46 47 48 49 50

000
ASUS43 KTOP 271408
RWRKS

WEATHER ROUNDUP FOR KANSAS
NATIONAL WEATHER SERVICE GOODLAND KS
800 AM CST THU NOV 27 2014

NOTE:  "FAIR" INDICATES FEW OR NO CLOUDS BELOW 12,000 FEET WITH NO
SIGNIFICANT WEATHER AND/OR OBSTRUCTIONS TO VISIBILITY.

KSZ001>006-013>018-027>032-041>047-271500-
NORTHWEST KANSAS

CITY           SKY/WX    TMP DP  RH WIND       PRES   REMARKS
GOODLAND       CLEAR     24  17  74 S14       30.26F WCI  12
HAYS           CLEAR     21  10  63 E6        30.43R
HILL CITY      PTCLDY    21  16  81 SE6       30.39R
RUSSELL        FAIR      19  15  84 E8        30.45R
$$

KSZ061>065-074>080-084>089-271500-
SOUTHWEST KANSAS

CITY           SKY/WX    TMP DP  RH WIND       PRES   REMARKS
DODGE CITY     PTCLDY    22  16  78 S9        30.40F
ELKHART          N/A     27  16  63 S9          N/A
GARDEN CITY    PTCLDY    22  17  81 S10       30.37S WCI  11
GREAT BEND     PTCLDY    19  12  73 S7        30.45F
LIBERAL        PTCLDY    25  16  68 S7        30.42S
PRATT          PTCLDY    19  16  86 SW5       30.47R
$$

KSZ066>073-081>083-090>101-271500-
SOUTHEAST KANSAS

CITY           SKY/WX    TMP DP  RH WIND       PRES   REMARKS
CHANUTE        CLEAR     21  19  92 W3        30.53R
COFFEYVILLE    CLEAR     24  20  84 NW3       30.55R
HUTCHINSON     PTCLDY    20  14  77 CALM      30.49S
MEDICINE LODGE   N/A     19  17  92 N3        30.50R
NEWTON         PTCLDY    19  12  73 N3        30.50R
PARSONS        CLEAR     22  19  89 N3        30.55R
WICHITA INTL   PTCLDY    25  18  74 NE5       30.50S
WICHITA JABRA  PTCLDY    21  17  84 CALM      30.49S
WICHITA MCCONL CLEAR     24  21  91 E3        30.50R
WINFIELD       PTCLDY    24  19  81 E3        30.52S
$$

KSZ007>012-019>026-033>040-048>060-102>105-271500-
NORTHEAST KANSAS

CITY           SKY/WX    TMP DP  RH WIND       PRES   REMARKS
CONCORDIA      PTCLDY    14  12  92 S7        30.48F
EMPORIA        CLEAR     18  15  88 NW3       30.51S
LAWRENCE       CLOUDY    24  19  81 N3        30.53R HAZE
MANHATTAN      CLOUDY    18  16  92 CALM      30.53R
MARYSVILLE     MOCLDY    18  14  86 CALM      30.50F
OLATHE IND     CLOUDY    24  20  84 N7        30.51R FOG
OLATHE EXE     CLOUDY    25  20  81 N7        30.50R
SALINA         PTCLDY    22  15  75 E3        30.52R
TOPEKA BILLARD CLOUDY    25  19  78 N3        30.54R
TOPEKA FORBES  CLOUDY    25  19  78 N5        30.52R
$$


USA.gov is the U.S. government's official web portal to all federal, state and local government web resources and services.